Home > Weather > Fortaleza > Past weeks

Flag for Brazil Weather for the Past 2 Weeks in Fortaleza, Ceará, Brazil

Now
86 °F

Passing clouds.


Feels Like: 95 °F
Forecast: 77 / 88 °F
Wind: 12 mph from East

Location: Fortaleza Aeropor-To

Current Time: May 3, 2016 at 4:12:24 PM

Latest Report: May 3, 2016 at 3:00 PM


Visibility: N/A

Pressure: 29.83 "Hg

Humidity: 70%

Dew Point: 75 °F

Location of FortalezaLocation

Historic Weather in Fortaleza — Graph

°F

Fortaleza Temperature Yesterday

Maximum temperature yesterday: 88 °F (at 1:00 PM)
Minimum temperature yesterday: 79 °F (at 4:00 AM)
Average temperature yesterday: 83 °F

High & Low Weather Summary for the Past Weeks

 TemperatureHumidityPressure
High90 °F (Apr 19, 12:00 PM)100% (Apr 29, 5:00 AM)29.98 "Hg (Apr 29, 5:00 AM)
Low75 °F (Apr 22, 9:00 AM)52% (Apr 20, 1:00 PM)29.74 "Hg (Apr 25, 3:00 PM)
Average83 °F77%29.86 "Hg
* Reported Apr 18 3:00 PM — May 3 3:00 PM, Fortaleza, Weather by CustomWeather, © 2016

Note: Actual official high and low records may vary slightly from our data, if they occured in-between our weather recording intervals... More about our weather records

Advertising

Fortaleza Weather History for the Previous 24 Hours

Scroll right to see more
 ConditionsComfort  
Time TempWeatherWind HumidityBarometerVisibility
3:00 PM
Tue, May 3
86 °FPassing clouds.12 mph70%29.83 "HgN/A
2:00 PM86 °FPassing clouds.12 mph70%29.83 "HgN/A
1:00 PM88 °FPassing clouds.12 mph70%29.86 "HgN/A
12:00 PM86 °FScattered clouds.10 mph66%29.89 "HgN/A
11:00 AM88 °FScattered clouds.16 mph62%29.92 "HgN/A
10:00 AM84 °FScattered clouds.14 mph70%29.95 "HgN/A
9:00 AM84 °FScattered clouds.13 mph70%29.95 "HgN/A
8:00 AM82 °FScattered clouds.10 mph79%29.95 "HgN/A
7:00 AM79 °FScattered clouds.7 mph89%29.92 "HgN/A
6:00 AM77 °FScattered clouds.7 mph89%29.92 "HgN/A
5:00 AM77 °FPassing clouds.6 mph89%29.89 "HgN/A
4:00 AM77 °FPassing clouds.3 mph89%29.89 "HgN/A
3:00 AM77 °FLight rain. Partly cloudy.5 mph89%29.89 "HgN/A
2:00 AM75 °FLight rain. Partly cloudy.2 mph94%29.89 "Hg6 mi
1:00 AM75 °FPartly cloudy.6 mph89%29.89 "HgN/A
12:00 AM77 °FLight rain. Partly cloudy.12 mph89%29.92 "Hg2 mi
11:00 PM
Mon, May 2
81 °FPassing clouds.5 mph89%29.92 "HgN/A
10:00 PM82 °FPassing clouds.6 mph84%29.95 "HgN/A
9:00 PM82 °FPassing clouds.5 mph84%29.92 "HgN/A
8:00 PM82 °FPassing clouds.5 mph79%29.89 "HgN/A
7:00 PM82 °FThundershowers. Passing clouds.5 mph79%29.89 "HgN/A
6:00 PM82 °FPassing clouds.5 mph74%29.86 "HgN/A
5:00 PM84 °FPassing clouds.9 mph74%29.83 "HgN/A
4:00 PM86 °FPassing clouds.10 mph66%29.83 "HgN/A
Weather by CustomWeather, © 2016

See weather overviewHow to use our weather pages